Home > Weather > Springfield > Past weeks

Flag for USA Past Weather in Springfield, Massachusetts, USA — Yesterday and Last 2 Weeks

Now
77 °F

Sunny.


Feels Like: 79 °F
Forecast: 65 / 87 °F
Wind: 7 mph from Northeast

Location: Barnes Municipal Airport

Current Time: Jul 30, 2016 at 11:16:27 AM

Latest Report: Jul 30, 2016 at 9:53 AM


Visibility: 10 mi

Pressure: 30.03 "Hg

Humidity: 54%

Dew Point: 59 °F

Location of SpringfieldLocation

Past Weather in Springfield — Graph

°F

Springfield Temperature Yesterday

Maximum temperature yesterday: 90 °F (at 2:53 PM)
Minimum temperature yesterday: 70 °F (at 11:53 PM)
Average temperature yesterday: 78 °F

High & Low Weather Summary for the Past Weeks

 TemperatureHumidityPressure
High97 °F (Jul 22, 4:53 PM)97% (Jul 18, 2:53 AM)30.23 "Hg (Jul 18, 2:53 AM)
Low53 °F (Jul 20, 4:53 AM)24% (Jul 23, 3:53 PM)29.72 "Hg (Jul 22, 5:53 PM)
Average78 °F59%29.94 "Hg
* Reported Jul 15 9:53 AM — Jul 30 9:53 AM, Springfield, Weather by CustomWeather, © 2016

Note: Actual official high and low records may vary slightly from our data, if they occured in-between our weather recording intervals... More about our weather records

Advertising

Springfield Weather History for the Previous 24 Hours

Scroll right to see more
 ConditionsComfort  
Time TempWeatherWind HumidityBarometerVisibility
9:53 AM
Sat, Jul 30
77 °FSunny.7 mph54%30.03 "Hg10 mi
8:53 AM73 °FSunny.8 mph64%30.04 "Hg10 mi
7:53 AM69 °FSunny.5 mph79%30.03 "Hg10 mi
6:53 AM66 °FSunny.5 mph87%30.01 "Hg10 mi
5:53 AM63 °FClear.5 mph90%29.98 "Hg9 mi
4:53 AM64 °FClear.3 mph94%29.97 "Hg10 mi
3:53 AM65 °FPassing clouds.5 mph94%29.96 "Hg10 mi
2:53 AM67 °FClear.5 mph90%29.95 "Hg10 mi
1:53 AM68 °FClear.6 mph90%29.94 "Hg10 mi
12:53 AM69 °FClear.6 mph90%29.94 "Hg10 mi
11:53 PM
Fri, Jul 29
70 °FClear.3 mph90%29.93 "Hg10 mi
10:53 PM71 °FClear.No wind90%29.92 "Hg10 mi
9:53 PM71 °FFog.No wind93%29.90 "Hg6 mi
8:53 PM73 °FSunny.3 mph90%29.89 "Hg10 mi
7:53 PM76 °FSunny.3 mph80%29.88 "Hg10 mi
6:53 PM75 °FLight rain. Partly sunny.5 mph82%29.86 "Hg10 mi
5:59 PM86 °FScattered clouds.6 mph48%29.84 "Hg10 mi
5:53 PM87 °FPassing clouds.5 mph45%29.83 "Hg10 mi
4:53 PM89 °FBroken clouds.13 mph43%29.82 "Hg10 mi
3:53 PM87 °FBroken clouds.9 mph43%29.80 "Hg10 mi
2:53 PM90 °FPassing clouds.7 mph38%29.80 "Hg10 mi
1:53 PM86 °FScattered clouds.No wind46%29.81 "Hg10 mi
12:53 PM85 °FSunny.3 mph48%29.84 "Hg10 mi
11:53 AM83 °FSunny.3 mph55%29.86 "Hg10 mi
Weather by CustomWeather, © 2016

See weather overviewHow to use our weather pages